TimeCST,TemperatureF,Dew PointF,Humidity,Sea Level PressureIn,VisibilityMPH,Wind Direction,Wind SpeedMPH,Gust SpeedMPH,PrecipitationIn,Events,Conditions,WindDirDegrees,DateUTC
12:10 AM,30.2,30.2,100,30.06,0.5,Calm,Calm,-,0.04,Fog-Snow,Snow,0,2013-02-03 06:10:00
12:29 AM,30.2,30.2,100,30.05,0.2,Calm,Calm,-,0.09,Fog-Snow,Heavy Snow,0,2013-02-03 06:29:00
12:36 AM,30.2,28.4,93,30.05,1.0,South,3.5,-,0.09,Snow,Light Snow,190,2013-02-03 06:36:00
12:42 AM,30.2,28.4,93,30.04,3.0,Calm,Calm,-,0.09,Snow,Light Snow,0,2013-02-03 06:42:00
12:49 AM,30.2,28.4,93,30.04,6.0,Calm,Calm,-,0.09,,Overcast,0,2013-02-03 06:49:00
12:54 AM,30.9,28.9,92,30.06,7.0,Calm,Calm,-,0.09,,Overcast,0,2013-02-03 06:54:00
1:46 AM,26.6,24.8,93,30.02,1.5,Calm,Calm,-,N/A,,Partly Cloudy,0,2013-02-03 07:46:00
1:54 AM,27.0,25.0,92,30.05,1.5,Calm,Calm,-,N/A,,Partly Cloudy,0,2013-02-03 07:54:00
2:03 AM,26.6,24.8,93,30.03,0.5,Calm,Calm,-,N/A,Fog,Light Freezing Fog,0,2013-02-03 08:03:00
2:11 AM,21.2,21.2,100,30.03,0.2,Calm,Calm,-,N/A,Fog,Light Freezing Fog,0,2013-02-03 08:11:00
2:19 AM,23.0,19.4,86,30.03,0.2,Calm,Calm,-,N/A,Fog,Light Freezing Fog,0,2013-02-03 08:19:00
2:45 AM,21.2,19.4,93,30.03,0.2,Calm,Calm,-,N/A,Fog,Light Freezing Fog,0,2013-02-03 08:45:00
2:52 AM,24.8,21.2,86,30.03,0.2,Calm,Calm,-,N/A,Fog,Light Freezing Fog,0,2013-02-03 08:52:00
2:54 AM,23.0,21.9,96,30.06,0.2,Calm,Calm,-,N/A,Fog,Light Freezing Fog,0,2013-02-03 08:54:00
3:11 AM,23.0,21.2,93,30.03,1.0,West,8.1,-,N/A,,Mostly Cloudy,260,2013-02-03 09:11:00
3:14 AM,26.6,23.0,86,30.03,3.0,West,9.2,-,N/A,,Mostly Cloudy,260,2013-02-03 09:14:00
3:54 AM,27.0,25.0,92,30.06,10.0,WSW,10.4,-,N/A,,Clear,250,2013-02-03 09:54:00
4:54 AM,27.0,24.1,89,30.07,10.0,WSW,10.4,-,N/A,,Partly Cloudy,250,2013-02-03 10:54:00
5:54 AM,30.0,25.0,82,30.09,10.0,WNW,11.5,-,N/A,,Partly Cloudy,290,2013-02-03 11:54:00
6:54 AM,30.9,24.1,76,30.10,10.0,WNW,13.8,-,N/A,,Clear,290,2013-02-03 12:54:00
7:54 AM,30.9,21.0,67,30.14,10.0,WNW,17.3,31.1,N/A,,Scattered Clouds,290,2013-02-03 13:54:00
8:54 AM,30.0,19.9,66,30.17,10.0,WNW,19.6,29.9,N/A,,Overcast,300,2013-02-03 14:54:00
9:54 AM,30.0,19.0,64,30.20,10.0,WNW,18.4,24.2,N/A,,Mostly Cloudy,300,2013-02-03 15:54:00
10:54 AM,30.9,19.0,61,30.23,10.0,WNW,18.4,-,N/A,,Mostly Cloudy,300,2013-02-03 16:54:00
11:54 AM,30.9,18.0,59,30.23,10.0,NW,10.4,24.2,N/A,,Scattered Clouds,310,2013-02-03 17:54:00
12:54 PM,32.0,17.1,54,30.23,10.0,WNW,13.8,21.9,N/A,,Partly Cloudy,300,2013-02-03 18:54:00
1:54 PM,33.1,15.1,48,30.20,10.0,NNW,10.4,-,N/A,,Clear,330,2013-02-03 19:54:00
2:54 PM,34.0,12.0,40,30.20,10.0,NW,6.9,-,N/A,,Clear,320,2013-02-03 20:54:00
3:54 PM,33.1,15.1,48,30.19,10.0,WSW,3.5,-,N/A,,Clear,250,2013-02-03 21:54:00
4:54 PM,32.0,15.1,50,30.17,10.0,Calm,Calm,-,N/A,,Partly Cloudy,0,2013-02-03 22:54:00
5:54 PM,27.0,14.0,58,30.15,10.0,Calm,Calm,-,N/A,,Scattered Clouds,0,2013-02-03 23:54:00
6:54 PM,27.0,15.1,61,30.14,10.0,Calm,Calm,-,N/A,,Clear,0,2013-02-04 00:54:00
7:54 PM,21.0,15.1,78,30.13,10.0,Calm,Calm,-,N/A,,Clear,0,2013-02-04 01:54:00
8:54 PM,30.0,14.0,51,30.10,10.0,SE,3.5,-,N/A,,Clear,140,2013-02-04 02:54:00
9:54 PM,25.0,15.1,66,30.07,10.0,Calm,Calm,-,N/A,,Clear,0,2013-02-04 03:54:00
10:54 PM,26.1,16.0,66,30.05,10.0,East,3.5,-,N/A,,Clear,100,2013-02-04 04:54:00
11:54 PM,26.1,17.1,69,30.02,10.0,ENE,3.5,-,N/A,,Clear,70,2013-02-04 05:54:00